Location: Coopersdale
(40.3556°N, 78.9372°W)
Time: 19:31:47
(UTC+00:00)

Transit 4A - Pass Details

Date: 25 January 2021
Orbit: 866 x 978 km, 66.8° (Epoch: 26 February)

Event Time Altitude Azimuth Distance (km) Brightness Sun altitude
Rises 02:22:37 0° 272° (W) 3,676 11.7 -45.0°
Reaches altitude 10° 02:26:57 10° 300° (WNW) 2,728 10.9 -45.8°
Enters shadow 02:29:22 13° 322° (NW) 2,518 10.5 -46.3°
Maximum altitude 02:29:43 13° 326° (NW) 2,514 - -46.3°
Drops below altitude 10° 02:32:29 10° 352° (N) 2,717 - -46.8°
Sets 02:36:48 0° 19° (NNE) 3,648 - -47.6°
